Find Starlink 6114

NORAD ID: 56116 Int'l Des: 2023-046 Owner: SPXS Country: US Constellation: starlink operational
LEOCIRCULAR

リアルタイム位置

3D地球を読み込み中...

Starlink 6114について

説明を読み込み中...

次回通過

Passes for default location (London). Set your location on the main map for personalized predictions.

高度履歴

Loading altitude history...

軌道要素

1 56116U 23046Z 26125.48582294 .00003045 00000-0 12622-3 0 9990
2 56116 43.0042 201.1542 0001960 280.7922 79.2708 15.25903232170716
Epoch: May 5, 2026 • Age: 19 hours

現在のステータス

高度 492.0 km
速度 7.62 km/s
衛星直下点 40.81°N, 19.27°W
打ち上げ日 Mar 29, 2023
運用期間 3.1 years
タイプ internet

技術仕様

分類 Payload
質量 305.00 kg
乾燥質量 290.00 kg
総質量 305.00 kg
長さ 0.20 m
直径 2.80 m
スパン 9.00 m
形状 Box + pan
製造者 SPXS
バスタイプ Starlink
フェーズステータス In Orbit
所有者/国 SPXS/US

Most Searched